Regional Weather Roundup
Issued by NWS

Home | Current Version | Previous Version | Graphics & Text | Print | Product List | Glossary On
Versions: 1 2 3 4 5 6 7 8 9 10 11 12 13 14 15 16 17 18 19 20 21 22 23 24 25 26 27 28 29 30 31 32 33 34 35 36 37 38 39 40 41 42 43 44 45 46 47 48 49 50
000
ASUS43 KLOT 220608
RWRIL

ILLINOIS REGIONAL WEATHER ROUNDUP
NATIONAL WEATHER SERVICE CHICAGO/ROMEOVILLE IL
1200 AM CST WED FEB 22 2017

NOTE: "FAIR" INDICATES FEW OR NO CLOUDS BELOW 12,000 FEET WITH NO
SIGNIFICANT WEATHER AND/OR OBSTRUCTIONS TO VISIBILITY.

* THESE STATIONS ARE NOT UNDER NWS QUALITY CONTROL. THEY ALSO MAY NOT
  REPORT WEATHER SUCH AS PRECIPITATION OR FOG.

ILZ001-002-007-009-015-016-024-220700-
NORTHWEST ILLINOIS

CITY           SKY/WX    TMP DP  RH WIND       PRES   REMARKS
MOLINE         CLEAR     46  42  86 CALM      29.83F
6HR MIN TEMP:  44; 6HR MAX TEMP:  60;

STERLING*      LGT RAIN  50  49  96 CALM      29.85S FOG
SAVANNA*       CLEAR     43  40  91 S3        29.84S
$$

ILZ003-004-008-010-011-017-018-220700-
NORTH CENTRAL ILLINOIS

CITY           SKY/WX    TMP DP  RH WIND       PRES   REMARKS
ROCKFORD       CLEAR     44  40  85 CALM      29.86S
6HR MIN TEMP:  43; 6HR MAX TEMP:  60;

FREEPORT*      CLEAR     45  44  99 SW7       29.85F FOG
ROCHELLE*      FOG       42  42 100 CALM      29.86S VSB<1/4
DE KALB*       FOG       46  46  98 SW6       29.86F VSB 1/4
PERU*          FOG       51  50  98 CALM      29.86S VSB 1/4
$$

ILZ005-006-012>014-019>023-220700-
NORTHEAST ILLINOIS

CITY           SKY/WX    TMP DP  RH WIND       PRES   REMARKS
CHICAGO-OHARE  CLOUDY    52  50  93 CALM      29.85S FOG
6HR MIN TEMP:  49; 6HR MAX TEMP:  62;

CHICAGO-MIDWAY PTCLDY    54  51  90 SW3       29.86S
6HR MIN TEMP:  53; 6HR MAX TEMP:  61;

AURORA         FOG       47  45  93 CALM      29.85F VSB 1
6HR MIN TEMP:  43; 6HR MAX TEMP:  57;

LANSING*       FOG       51  51 100 CALM      29.87S VSB 1/4
JOLIET*        FOG       46  46 100 CALM      29.86S VSB<1/4
WAUKEGAN       PTCLDY    44  43  96 SW3       29.83F FOG
6HR MIN TEMP:  41; 6HR MAX TEMP:  48;

DUPAGE AIRPORT FOG       45  43  93 SE3       29.85S VSB 1/4
6HR MIN TEMP:  43; 6HR MAX TEMP:  57;

KANKAKEE*      CLOUDY    53  51  94 S8        29.87S
WHEELING       PTCLDY    47  45  93 SE3       29.86F FOG
6HR MIN TEMP:  46; 6HR MAX TEMP:  61;

MORRIS*          N/A     51  51  97 CALM      29.84F FOG
ROMEOVILLE*    FOG       52  52 100 CALM      29.86F VSB 1/4
NORTHERLY ISL    N/A     57  52  83 SW3         N/A
$$

LMZ740>746-220700-
SOUTHERN LAKE MICHIGAN

STATION/POSITION SKY/WX   TEMP    WIND        PRES    VSBY  WAVE
                          AIR SEA DIR/SP/G                  HT/PER
                          (F)     (DEG/KT/KT) (MB)    (MI)  (FT/S)
HARRISON CRIB              59     210/ 11/ 12   N/A
BURNHAM HARBOR             56     200/  3/  6   N/A
CALUMET HARBOR             54     190/  3/  4 1010.8S
BURNS HARBOR               53     190/  7/  9 1011.9S
MICHIGAN CITY              55     150/ 12/ 14   N/A
$$

ILZ025>027-034>036-040-047-049-050-058-095>099-220700-
WEST-CENTRAL ILLINOIS

CITY           SKY/WX    TMP DP  RH WIND       PRES   REMARKS
QUINCY         FOG       51  51 100 SW6       29.86S VSB<1/4
GALESBURG*     FOG       49  49 100 S3        29.86S VSB<1/4
MACOMB*        FOG       48  48  99 S3        29.88S VSB<1/4
JACKSONVILLE*  CLOUDY    55  54  96 S5        29.86S FOG
PITTSFIELD*    FOG       52  52 100 SW3       29.87F VSB 1/4
$$

ILZ028>032-037-038-041>044-048-051>054-059>061-220700-
CENTRAL ILLINOIS

CITY           SKY/WX    TMP DP  RH WIND       PRES   REMARKS
PONTIAC        CLEAR     54  53  98 S6        29.87R FOG
BLOOMINGTON    CLEAR     53  51  93 S7        29.87F FOG
DECATUR        MOCLDY    51  49  92 S7        29.86F
PEORIA         FOG       56  56 100 SW6       29.86S VSB 1/4
6HR MIN TEMP:  53; 6HR MAX TEMP:  63;

LACON*         FOG       47  47 100 CALM      29.85S VSB 1/4
LINCOLN*       CLEAR     53  53 100 CALM      29.86S FOG
SPRINGFIELD    PTCLDY    54  53  97 S7        29.86F FOG
6HR MIN TEMP:  53; 6HR MAX TEMP:  63;

TAYLORVILLE    MOCLDY    51  51 100 SE6       29.87F
6HR MIN TEMP:  49; 6HR MAX TEMP:  59;

$$

ILZ033-039-045-046-055>057-062-063-220700-
EAST-CENTRAL ILLINOIS

CITY           SKY/WX    TMP DP  RH WIND       PRES   REMARKS
CHAMPAIGN      PTCLDY    52  50  93 S8        29.87F FOG
RANTOUL*       CLOUDY    53  52  96 S8        29.87F FOG
MATTOON        CLOUDY    49  49 100 SE5       29.88F FOG
PARIS*         CLOUDY    48  48 100 CALM      29.90F
$$

ILZ079-100>102-220700-
SOUTHWEST ILLINOIS

CITY           SKY/WX    TMP DP  RH WIND       PRES   REMARKS
ALTON          FOG       48  48  99 SE7       29.88S VSB 1/4
BELLEVILLE     MOCLDY    49  49 100 CALM      29.87F
CAHOKIA*       CLOUDY    51  50  96 CALM      29.88F FOG
SPARTA*        CLOUDY    53  52  94 CALM      29.91F
$$

ILZ064>066-069>071-074>076-080>082-084>086-088>090-092>094-220700-
SOUTH-CENTRAL ILLINOIS

CITY           SKY/WX    TMP DP  RH WIND       PRES   REMARKS
CARBONDALE     CLOUDY    53  53 100 CALM      29.90F FOG
6HR MIN TEMP:  53; 6HR MAX TEMP:  61;

CAIRO*         CLOUDY    55  55  97 CALM      29.91F
EFFINGHAM*     FOG       49  49 100 CALM      29.91S VSB 1
MARION         CLOUDY    55  55 100 CALM      29.92R
MT. VERNON     CLOUDY    50  50 100 CALM      29.91S FOG
CENTRALIA*     CLOUDY    51  51 100 CALM      29.89F FOG
SALEM*         PTCLDY    52  51  93 CALM      29.89F FOG
METROPOLIS*    CLOUDY    57  56  97 CALM      29.92F FOG
$$

ILZ067-068-072-073-078-083-087-091-220700-
SOUTHEAST ILLINOIS

CITY           SKY/WX    TMP DP  RH WIND       PRES   REMARKS
LAWRENCEVILLE  CLOUDY    54  54 100 NE5       29.90F FOG
FLORA*         FOG       54  53  97 CALM      29.90F VSB 1/2
FAIRFIELD*     PTCLDY    51  51 100 CALM      29.89S FOG
HARRISBURG*    MOCLDY    53  53  99 CALM      29.91S
ROBINSON*      FOG       49  49 100 CALM      29.90F VSB 1/4
CARMI*         MOCLDY    52  51  99 CALM      29.90R FOG
$$

ABBREVIATIONS USED IN REMARKS
   TC - TEMPERATURE IN CELSIUS
  WCI - WIND CHILL INDEX
   HX - HEAT INDEX
  VSB - VISIBILITY
$$





USA.gov is the U.S. government's official web portal to all federal, state and local government web resources and services.